OneWeb SL0330

operational
NORAD ID: 49108 Int'l Des: 2021-075 Owner: ONEWEBN Country: UK Constellation: oneweb
LEOCIRCULARPOLARONEWEB_TYPE

关于 OneWeb SL0330

正在加载描述...

实时位置

正在加载3D地球...

即将过境

高度历史

Altitude vs Time

uPlot chart will show altitude changes over time

两行轨道根数

1 49108U 21075AK 25353.59363304 .00000070 00000-0 14608-3 0 9997
2 49108 87.9103 41.5896 0001537 100.3215 259.8090 13.17650480209978
Epoch: Dec 19, 2025 • Age: 7 hours

当前状态

高度 1212.0 km
速度 7.25 km/s
星下点 -45.60°S, 177.87°W
发射日期 Aug 21, 2021
运行时间 4.3 years
类型 internet

技术详情

分类 Payload
质量 148.00 kg
干质量 140.00 kg
总质量 148.00 kg
长度 1.30 m
直径 1.00 m
跨度 5.00 m
形状 Trapezoid+2 pan
制造商 ONEWUS
平台类型 ARROW
阶段状态 In Orbit
所有者/国家 ONEWEBN/UK

大型星座

Loading constellations...